Miscellaneous Local Product
Issued by NWS Hastings, NE

Home | Current Version | Previous Version | Text Only | Print | Product List | Glossary Off
Versions: 1 2 3 4 5 6 7 8 9 10 11 12 13 14 15 16 17 18 19 20 21 22 23 24 25 26 27 28 29 30 31 32 33 34 35 36 37 38 39 40 41 42 43 44 45 46 47 48 49 50

000
AXUS43 KGID 030102
MISGRI

GID CWA HOURLY WEATHER ROUNDUP
NATIONAL WEATHER SERVICE HASTINGS NE
800 PM CDT WED SEP 02 2015

NOTE: "FAIR" INDICATES FEW OR NO CLOUDS BELOW 12,000 FEET WITH NO
SIGNIFICANT WEATHER AND/OR OBSTRUCTIONS TO VISIBILITY.

...SOUTH CENTRAL NEBRASKA...

CITY           SKY/WX    TMP DP  RH WIND       PRES   REMARKS
GRAND ISLAND   PTCLDY    84  67  56 SE5       29.83S
HASTINGS       CLEAR     86  64  47 SE5       29.82F
KEARNEY        CLEAR     82  66  57 E5        29.83S
ORD            CLEAR     87  66  49 SE8       29.82R
YORK           PTCLDY    82  72  69 S7        29.83R
AURORA         PTCLDY    81  71  69 SE6       29.82S
LEXINGTON      CLEAR     84  69  59 E7        29.83S
HOLDREGE       CLEAR     83  65  54 E7        29.83S
HEBRON         PTCLDY    86  61  42 S7        29.83S

...NEBRASKA PANHANDLE...

CITY           SKY/WX    TMP DP  RH WIND       PRES   REMARKS
CHADRON        CLEAR     85  49  28 S9        29.80R
ALLIANCE       CLEAR     85  45  24 S6        29.88R
SCOTTSBLUFF    CLEAR     86  50  28 SE8       29.88S
SIDNEY         CLEAR     83  42  23 S7        29.93S

...WESTERN AND NORTH CENTRAL NEBRASKA...

CITY           SKY/WX    TMP DP  RH WIND       PRES   REMARKS
VALENTINE      PTCLDY    88  51  28 S7        29.78S
AINSWORTH      PTCLDY    86  55  33 S10       29.81R
ONEILL         PTCLDY    85  70  60 SE9       29.81S HX  90
BROKEN BOW     CLEAR     84  65  52 SE5       29.85R
IMPERIAL       PTCLDY    86  56  35 E8        29.86R
NORTH PLATTE   CLEAR     79  67  66 E8        29.84R
MCCOOK         CLEAR     89  57  33 E7        29.82R

...EASTERN NEBRASKA...

CITY           SKY/WX    TMP DP  RH WIND       PRES   REMARKS
NORFOLK        CLEAR     80  71  74 SE5       29.82S
SO SIOUX CITY  CLEAR     81  69  67 SE5       29.81S
TEKAMAH        PTCLDY    80  74  81 SE8       29.82S
COLUMBUS       PTCLDY    79  70  73 CALM      29.82S
ALBION         CLEAR     80  70  71 SE5       29.83S
OMAHA EPPLEY   MOCLDY    84  72  67 SE15      29.83S
OFFUTT AFB     PTCLDY    81  73  75 SE9       29.84R
MILLARD        PTCLDY    84  74  71 SE5       29.83S HX  91
LINCOLN        PTCLDY    85  68  56 S10       29.83S
NEBRASKA CITY  PTCLDY    80  66  62 S8        29.86S
BEATRICE       PTCLDY    84  68  57 S9        29.84R
FALLS CITY     PTCLDY    80  69  69 SE7       29.87R

...NORTHERN KANSAS...

CITY           SKY/WX    TMP DP  RH WIND       PRES   REMARKS
GOODLAND       PTCLDY    87  45  23 SW7       29.87S
HILL CITY      CLEAR     93  57  29 S6        29.79S HX  91
NORTON         CLEAR     84  55  37 CALM      29.79S
PHILLIPSBURG   CLEAR     93  55  27 CALM      29.78R HX  91
SMITH CENTER   CLEAR     90  57  33 SE13      29.80R
HAYS           CLEAR     93  55  27 S17       29.81R HX  91
RUSSELL        CLEAR     92  57  30 S20       29.80S HX  90
CONCORDIA      CLEAR     85  64  49 S10       29.83R
SALINA         CLEAR     90  63  40 S17       29.83F HX  91
TOPEKA         CLEAR     82  70  66 SE9       29.89S



USA.gov is the U.S. government's official web portal to all federal, state and local government web resources and services.